LEGION 4

Last updated on Wed Nov 05 2025 00:02:31 GMT+0000 (Coordinated Universal Time)

1 60453U 24146B 25308.32813510 .00006505 00000+0 34030-3 0 9994 2 60453 45.0383 247.5973 0010639 59.4467 300.7461 15.16579914 66757
UTC large
Height (km)
Speed (km/s)
/
Latitude / Longitude
Inclination (degrees)
Orbital Period (minutes)
Azimuth
Elevation
Range (km)
Doppler Factor

Next 0 passes for location: London (51.5072 / 0.1276)

Sorry there are no passes over London.